STARLINK-35009

Last updated on Tue Sep 16 2025 00:02:08 GMT+0000 (Coordinated Universal Time)

1 65449U 25194R 25258.01930622 -.00198244 00000+0 -11972-2 0 9995 2 65449 97.5976 109.3516 0000659 331.1977 28.9252 15.78074252 3090
UTC large
Height (km)
Speed (km/s)
/
Latitude / Longitude
Inclination (degrees)
Orbital Period (minutes)
Azimuth
Elevation
Range (km)
Doppler Factor

Next 0 passes for location: London (51.5072 / 0.1276)

Sorry there are no passes over London.